Theta_e
297 297 297 298 298 298 299 299 298 297 297 298 299 299 300 302 303 303 302 303 305 306 307 306 304 303 305
294 294 295 296 298 298 297 296 296 296 296 298 298 299 299 299 299 302 301 301 301 304 305 305 303 302 302
294 295 295 295 296 296 295 295 295 295 296 296 297 298 296 298 299 299 300 300 300 301 303 304 303 300 299
294 294 294 293 294 295 295 295 294 293 293 294 294 296 297 296 296 298 299 300 300 300 302 303 302 299 296
293 293 293 293 293 294 294 294 294 293 293 294 293 293 294 294 296 296 296 297 298 298 300 302 302 299 296
292 292 292 292 293 293 293 293 292 293 293 292 293 293 293 294 294 295 295 296 297 298 299 300 301 299 296
291 291 291 292 292 292 293 292 292 292 291 292 291 292 292 292 293 294 294 295 296 297 298 297 301 300 297
290 289 290 292 291 291 292 292 292 291 291 291 291 291 292 291 291 293 294 295 296 296 297 297 300 299 297
289 290 291 291 290 291 291 291 290 290 290 291 291 291 289 289 292 294 293 293 296 297 296 296 299 299 297
290 290 290 289 289 290 291 290 291 290 291 290 290 289 289 290 291 291 292 292 292 292 293 294 297 298 296
290 290 289 289 288 289 291 290 289 288 288 288 288 288 289 289 290 290 291 291 292 291 292 293 294 298 297
290 289 289 288 287 288 288 286 286 287 287 286 287 288 289 289 289 290 289 290 291 291 291 292 292 295 296
289 288 287 287 287 287 286 286 286 286 286 286 286 287 288 288 288 289 289 289 289 290 291 292 293 293 295
288 288 287 286 285 285 285 286 286 286 285 285 286 286 288 288 288 288 288 289 289 289 291 291 293 292 292
288 287 287 286 285 284 284 285 286 286 285 285 286 286 287 288 288 288 287 288 288 289 290 291 292 292 292
288 287 287 286 285 285 285 285 285 285 285 285 286 286 286 287 288 288 288 288 289 288 289 289 290 291 291
286 287 287 286 286 284 284 285 285 285 286 286 286 286 285 286 288 289 288 288 288 288 288 288 288 289 290
Wind_Speed
21 22 26 27 27 25 28 30 31 33 32 26 26 27 27 26 25 25 25 26 25 24 23 22 20 19 17
22 24 25 26 25 19 29 31 32 30 27 24 24 23 26 30 29 26 26 26 26 26 24 23 21 20 18
23 23 23 26 26 25 30 29 26 26 28 28 24 25 28 29 29 29 30 29 31 28 27 25 23 21 20
21 20 21 24 23 23 22 21 26 30 28 27 28 28 26 28 28 27 25 24 25 27 28 27 26 23 21
18 19 20 21 21 25 23 23 26 25 25 24 27 34 32 29 31 32 30 33 32 28 27 28 28 24 20
18 18 22 22 23 24 23 18 6 20 15 30 22 28 30 28 31 32 31 27 26 28 27 27 30 27 21
23 22 24 24 25 25 22 20 19 27 21 21 22 25 26 30 29 31 32 32 27 24 28 28 33 30 24
24 28 26 24 24 26 27 22 22 26 18 15 19 24 25 33 30 26 27 29 28 24 26 27 32 32 27
24 23 23 24 23 24 22 16 15 16 16 12 12 24 27 29 23 17 28 25 15 16 21 24 30 32 27
26 25 24 23 19 20 19 13 13 8 2 9 17 19 10 21 20 23 24 26 22 15 19 19 21 25 25
25 23 21 17 21 17 12 9 11 15 19 14 19 21 15 14 14 23 20 27 24 19 15 16 22 26 28
22 20 17 18 19 16 15 17 15 17 21 18 17 19 20 15 13 17 24 27 23 22 17 13 15 18 26
22 20 17 18 16 17 22 18 19 18 18 19 20 22 20 13 14 18 20 18 25 19 13 10 12 12 24
23 21 19 18 19 21 23 22 21 19 18 19 21 18 19 18 18 19 22 12 20 20 17 11 9 9 20
22 18 19 18 19 20 21 21 18 21 22 22 16 17 18 18 17 19 20 19 20 17 15 12 7 8 18
15 18 21 18 17 17 18 21 20 21 22 23 20 17 15 14 13 19 17 16 17 15 12 9 12 11 9
16 16 19 17 15 16 18 16 17 18 19 22 21 14 6 6 12 11 13 17 17 14 11 11 8 11 12
Wind_Direction
312 315 311 310 311 308 302 307 313 315 312 308 305 309 302 304 294 290 287 289 283 279 277 277 278 282 285
309 316 313 315 310 302 310 309 310 313 317 306 304 307 307 308 308 293 290 290 289 275 269 267 268 273 276
303 310 314 317 307 308 309 310 312 315 311 309 303 298 305 305 304 296 286 288 289 283 268 259 258 265 269
300 310 310 313 311 308 317 311 309 315 313 311 313 308 305 307 306 302 297 287 287 289 270 261 257 254 260
292 301 303 303 302 303 296 296 298 304 304 311 313 310 309 309 303 299 295 289 288 284 277 257 251 246 245
304 300 299 299 299 295 295 294 301 311 306 305 309 304 308 305 302 300 297 294 287 278 277 266 242 241 233
301 296 295 301 311 305 298 284 283 294 315 298 315 305 309 302 306 301 297 292 289 274 280 271 239 235 227
298 300 300 305 309 304 300 293 285 294 310 280 304 300 315 306 307 312 309 296 282 275 268 272 247 227 221
297 292 294 303 310 310 303 290 295 298 311 284 307 313 311 304 312 309 323 317 300 272 268 268 254 222 219
299 302 306 313 323 321 310 294 285 289 337 327 310 314 307 301 303 321 320 316 296 292 279 267 254 207 208
293 297 304 312 324 324 309 313 306 291 302 310 298 301 280 297 304 309 325 320 316 295 282 265 238 212 207
292 296 304 318 324 315 303 311 305 295 311 313 285 290 282 288 293 309 318 319 314 305 287 272 250 245 209
287 293 306 318 319 319 318 309 306 311 311 312 307 296 290 273 287 301 317 311 314 304 293 277 262 263 179
272 284 298 305 313 322 320 319 304 313 319 322 321 304 297 285 283 291 299 288 304 312 313 308 274 242 189
268 284 291 291 301 312 314 316 302 309 313 324 334 323 308 300 285 283 289 294 306 313 303 295 282 220 199
271 283 281 282 295 304 306 306 301 303 304 315 327 332 325 314 290 280 304 310 326 328 302 283 281 255 202
283 286 285 274 290 301 304 299 294 302 308 316 313 309 304 313 314 300 296 312 316 319 301 271 270 285 249